Location: Gallinara
(44.0333°N, 8.2333°E)
Time: 06:03:15
(UTC+00:00)

USA 267 - Pass Details

Date: 25 September 2020
Orbit: 1101 x 1106 km, 123.0° (Epoch: 22 September)

Event Time Altitude Azimuth Distance (km) Brightness Sun altitude
Rises 01:41:34 0° 53° (NE) 3,924 7.1 -36.6°
Reaches altitude 10° 01:44:11 10° 59° (ENE) 2,964 6.3 -36.2°
Enters shadow 01:49:36 43° 111° (ESE) 1,494 4.0 -35.5°
